This is the latest recevied weather packets stored in our database for station/object KD0SBN-3. If no packets are shown the sender has not sent any weather packets the latest 1 day(s).
| Time | Temp. | Humidity | Pressure | Rain* | Wind** | Luminosity | Snow |
|---|---|---|---|---|---|---|---|
| 1778075928 | -3.33° C | 96% | 1020.4 hPa | 0 mm | - | 33 W/m² | - |
| 1778074411 | -3.33° C | 96% | 1020 hPa | 0 mm | - | 20 W/m² | - |
| 1778074108 | -3.33° C | 96% | 1020.3 hPa | 0 mm | - | 10 W/m² | - |
| 1778073503 | -3.33° C | 96% | 1020 hPa | 0 mm | - | 7 W/m² | - |
| 1778072291 | -3.33° C | 96% | 1020.2 hPa | 0 mm | - | 8 W/m² | - |
| 1778070780 | -3.33° C | 96% | 1019.4 hPa | 0 mm | - | 5 W/m² | - |
| 1778070476 | -3.33° C | 96% | 1019.6 hPa | 0 mm | - | 3 W/m² | - |
| 1778070173 | -3.33° C | 96% | 1019.2 hPa | 0 mm | - | 2 W/m² | - |
| 1778069568 | -3.33° C | 96% | 1019.2 hPa | 0 mm | - | 1 W/m² | - |
| 1778068056 | -2.78° C | 97% | 1018.9 hPa | 0 mm | - | 0 W/m² | - |
| 1778067452 | -2.78° C | 97% | 1018.7 hPa | 0 mm | - | 0 W/m² | - |
| 1778067149 | -2.78° C | 97% | 1018.6 hPa | 0 mm | - | 0 W/m² | - |
| 1778066845 | -2.78° C | 97% | 1019 hPa | 0 mm | - | 0 W/m² | - |
| 1778066543 | -2.78° C | 97% | 1018.7 hPa | 0 mm | - | 0 W/m² | - |
| 1778065029 | -2.22° C | 97% | 1018.7 hPa | 0 mm | - | 0 W/m² | - |
| 1778064726 | -2.22° C | 97% | 1018.7 hPa | 0 mm | - | 0 W/m² | - |
| 1778064424 | -2.22° C | 97% | 1018.9 hPa | 0 mm | - | 0 W/m² | - |
| 1778064121 | -2.22° C | 97% | 1018.5 hPa | 0 mm | - | 0 W/m² | - |
| 1778063818 | -1.67° C | 97% | 1018.6 hPa | 0 mm | - | 0 W/m² | - |
| 1778063515 | -2.22° C | 97% | 1018.6 hPa | 0 mm | - | 0 W/m² | - |
| 1778062910 | -2.22° C | 97% | 1018.5 hPa | 0 mm | - | 0 W/m² | - |
| 1778062607 | -2.22° C | 97% | 1018.6 hPa | 0 mm | - | 0 W/m² | - |
| 1778062304 | -2.22° C | 97% | 1018.6 hPa | 0 mm | - | 0 W/m² | - |
| 1778061700 | -1.67° C | 97% | 1018.6 hPa | 0 mm | - | 0 W/m² | - |
| 1778060490 | -1.67° C | 97% | 1018.9 hPa | 0 mm | - | 0 W/m² | - |
* Rain latest hour (hover to see other rain measurements)
** Current wind speed in m/s (hover to see current wind gust speed)